Regional Weather Roundup
Issued by NWS

Home | Current Version | Previous Version | Text Only | Print | Product List | Glossary Off
Versions: 1 2 3 4 5 6 7 8 9 10 11 12 13 14 15 16 17 18 19 20 21 22 23 24 25 26 27 28 29 30 31 32 33 34 35 36 37 38 39 40 41 42 43 44 45 46 47 48 49 50

000
ASUS43 KMKX 300521
RWRWI

WISCONSIN REGIONAL WEATHER ROUNDUP
NATIONAL WEATHER SERVICE MILWAUKEE/SULLIVAN WI
1200 AM CDT MON MAY 30 2016

NOTE: "FAIR" INDICATES FEW OR NO CLOUDS BELOW 12,000 FEET WITH NO
SIGNIFICANT WEATHER AND/OR OBSTRUCTIONS TO VISIBILITY.

WIZ001-002-006>008-014>016-023>028-300600-
NORTHWEST WISCONSIN

CITY           SKY/WX    TMP DP  RH WIND       PRES   REMARKS
SUPERIOR ARPT  CLEAR     54  52  92 SW5       29.93S
ASHLAND        PTCLDY    54  51  90 SW6       29.93S
HAYWARD        MOCLDY    54  51  90 CALM      29.97R
SIREN          CLEAR     56  53  91 CALM      29.98R
CUMBERLAND     MOCLDY    57  55  94 W3        29.98S
RICE LAKE      MOCLDY    59  57  92 CALM      29.99R
CHETEK         MOCLDY    58  58 100 CALM      29.99R
LADYSMITH      CLEAR     56  54  94 CALM      29.99R
EAU CLAIRE     PTCLDY    61  56  83 CALM      29.97R
MENOMONIE      CLEAR     62  56  82 CALM      29.98S
NEW RICHMOND   CLEAR     58  56  94 CALM      29.99S
OSCEOLA        PTCLDY    58  58 100 CALM      30.01S
$$

WIZ003>005-009-010-017-018-300600-
NORTH CENTRAL WISCONSIN

CITY           SKY/WX    TMP DP  RH WIND       PRES   REMARKS
MANITOWISH WTR NOT AVBL
ARBOR VITAE    CLEAR     57  55  92 CALM      29.96R
WOODRUFF       CLEAR     57  55  92 CALM      29.96R
RHINELANDER    CLEAR     53  52  96 W5        29.97R FOG
EAGLE RIVER      N/A     52  52 100 CALM      29.95R FOG
LAND O LAKES   CLEAR     51  51  99 CALM      29.95S FOG
PHILLIPS       CLEAR     53  53 100 CALM      29.96S
TOMAHAWK       PTCLDY    52  51  96 CALM      29.97R
MEDFORD        PTCLDY    61  57  86 W3        29.98R
MERRILL        PTCLDY    55  55 100 CALM      29.98R
$$

WIZ029-030-035-036-043>047-300600-
CENTRAL WISCONSIN

CITY           SKY/WX    TMP DP  RH WIND       PRES   REMARKS
WAUSAU         MOCLDY    60  56  86 CALM      29.96R
MOSINEE        PTCLDY    59  57  94 SW5       29.99R
MARSHFIELD     MOCLDY    62  55  77 CALM      29.97S
STEVENS POINT  CLEAR     59  55  87 CALM      29.98S
WAUPACA        CLEAR     60  59  94 CALM      29.97R
WAUTOMA        CLEAR     58  56  93 CALM      29.99R
WISC RAPIDS    CLEAR     59  55  87 W6        29.99R
CAMP DOUGLAS   PTCLDY    57  57 100 NW1       29.98S
$$

WIZ011>013-019>022-031-037>040-048>050-300600-
NORTHEAST WISCONSIN

CITY           SKY/WX    TMP DP  RH WIND       PRES   REMARKS
ANTIGO         MOCLDY    57  55  94 CALM      29.97R
SHAWANO        PTCLDY    64  57  78 CALM      29.95R
OCONTO         CLEAR    N/A N/A N/A CALM      29.94R
STURGEON BAY   NOT AVBL
GREEN BAY      CLEAR     66  57  72 W6        29.95R
MANITOWOC      CLEAR     64  59  83 W6        29.96R
APPLETON       CLEAR     61  52  72 W5        29.96R
CLINTONVILLE   CLEAR     63  54  72 CALM      29.95S
OSHKOSH        CLEAR     65  57  75 W5        29.97R
$$

WIZ032>034-041-042-053>061-300600-
SOUTHWEST WISCONSIN

CITY           SKY/WX    TMP DP  RH WIND       PRES   REMARKS
LA CROSSE      PTCLDY    65  60  84 S7        29.98S
SPARTA         MOCLDY    58  56  94 CALM      29.99F
VIROQUA        MOCLDY    63  58  81 SW3       30.02S
BOSCOBEL       CLEAR     60  59  96 CALM      30.01R FOG
PRAIRIE DU CHI CLEAR     62  58  86 CALM      30.00S
PLATTEVILLE    PTCLDY    66  60  80 CALM      30.01F
$$

WIZ056-057-062-063-064-067-068-300600-
SOUTH CENTRAL WISCONSIN

CITY           SKY/WX    TMP DP  RH WIND       PRES   REMARKS
REEDSBURG      CLEAR     62  61  96 CALM      30.00R
BARABOO/DELLS  CLEAR     63  59  87 SW5       30.00S
LONE ROCK      CLEAR     61  60  97 CALM      30.01S
MINERAL POINT  PTCLDY    66  59  77 CALM      30.02S
MADISON        PTCLDY    63  60  90 CALM      29.99S
MIDDLETON      PTCLDY    63  61  94 CALM      30.01S
WATERTOWN      MOCLDY    66  59  79 W3        29.99R
MONROE         CLEAR     66  55  68 W10       30.01R
JANESVILLE     CLEAR     63  59  88 CALM      30.00S
$$

WIZ051-052-058>065-066-070>072-300600-
SOUTHEAST WISCONSIN

CITY           SKY/WX    TMP DP  RH WIND       PRES   REMARKS
MILWAUKEE      PTCLDY    69  58  67 W6        29.98R
WAUKESHA       CLOUDY    66  55  68 W7        30.00R
MILWAUKEE/TIMM CLOUDY    64  54  68 W5        29.99R
RACINE         CLEAR     67  57  70 W5        30.00R
BURLINGTON     PTCLDY    60  59  94 SW3       29.99S
KENOSHA        CLEAR     62  57  83 W6        29.99S
FOND DU LAC    PTCLDY    64  58  80 W5        29.98R
SHEBOYGAN      CLEAR     63  57  81 W5        29.96R
WEST BEND      CLOUDY    64  55  72 W3        29.98R
JUNEAU         PTCLDY    63  58  84 SW7       30.00R
$$

LSZ147-162-300600-
LAKE SUPERIOR

STATION/POSITION TIME  TEMP    WIND        PRES    WAVE
                       AIR SEA DIR/SP/G            HT/PER
                 (UTC) (F)     (DEG/KT/KT) (MB)    (FT/S)
W MID LAKE BUOY  0450   45 38  250/ 12/ 12 1012.1F   1/ 4
DEVILS ISLAND    0500   59     220/ 13/ 15 1012.4F
SAXON HARBOR     0440   55     200/  7/  8 1012.5S
$$

LMZ867-665-643>646-300600-
LAKE MICHIGAN

STATION/POSITION TIME  TEMP    WIND        PRES    WAVE
                       AIR SEA DIR/SP/G            HT/PER
                 (UTC) (F)     (DEG/KT/KT) (MB)    (FT/S)
CHAMBERS ISLAND  0440   63     240/  3/  5 1013.2R
N MID LAKE BUOY  0450   54 47  250/  8/ 10 1012.4R   2/ 5
NORTHPORT PIER   0400   63     270/  4/  7 1012.9R
KEWAUNEE LAKESHO 0400   67     300/  3/  5 1013.0
SHEBOYGAN LAKESH 0500   68     260/  7/  8 1014.6R
PORT WASHINGTON  0400   69     260/  5/  7 1014.9
S MID LAKE BUOY  0450   57 51  230/  8/  8 1014.7R   1
KENOSHA   LAKESH 0500   71     260/  6/  9 1014.9F
$$

TC  - TEMPERATURE IN CELSIUS
VSB - VISIBILITY IN STATUTE MILES
WCI - WIND CHILL INDEX
HX  - HEAT INDEX





USA.gov is the U.S. government's official web portal to all federal, state and local government web resources and services.